Location: Kawakawa
(35.3830°S, 174.0670°E)
Time: 17:54:22
(UTC+12:00)

BREEZE-M DEB (TANK) - Pass Details

Date: 15 August 2020
Orbit: 332 x 16593 km, 49.5° (Epoch: 25 September)

Event Time Altitude Azimuth Distance (km) Brightness Sun altitude
Rises 20:06:02 0° 316° (NW) 12,384 9.7 -27.8°
Reaches altitude 10° 20:19:05 10° 316° (NW) 8,448 8.7 -30.5°
Enters shadow 20:38:09 79° 1° (N) 1,399 4.1 -34.3°
